STARLINK-37291, 68560

Orbit data source: Space-Track

STARLINK-37291, 68560 is a payload satellite owned by SpaceX/Seattle (US) in LEO that was launched on Thu, 02 Apr 2026 UTC via an FALCON 9 launch vehicle from the Air Force Eastern Test Range (AFETR). Payload-class satellites include a variety of spacecraft equipped with specific instruments for various scientific and technological missions. These include communications satellites like Starlink; space stations such as the ISS; scientific satellites like the Hubble; Earth observation satellites from companies like Planet Labs, Umbra, and HawkEye 360; GPS; miniature CubeSats for education and research; and military/defense satellites.

Loading next visibility...
Identifier
68560, 2026-070U
Orbit
LEO
Country
Flag of USUS
Related business
Manufacturer
SpaceX/Seattle
Mission
Operational Commercial Communications
Bus & Motor
STARLINK V2MO, Unknown motor
Mass
575 kg wet, ~530 kg dry
Launch date (UTC)
2026-04-02 (5 months ago)
Launch vehicle
FALCON 9
Launch site
Air Force Eastern Test Range (AFETR)
Object type
Payload
Rocket body
Debris
Shape & HBR
Box + 1 Pan, 17.7 m
Radar Cross Section
41.120 m², Large (>1 m²)

Expand to show TLE details & history
Last TLE update: 1 day ago

TLE from 1 day ago
0 STARLINK-37291
1 68560U 26070U   26246.26369532  .00003424  00000-0  11245-3 0  9995
2 68560  53.1584 254.1143 0001250  85.7533 274.3612 15.34394576 23795
Epoch: 2026-09-03T06:19Z
TLE epoch observation values (Epoch: 2026-09-03T06:19:43.275Z)
Latitude
-0.00006°
Longitude
176.77957°
Altitude
463.556 km
Speed
7.636 km/s
True Right ascension
16h 56m 27s
True Declination
0° 00' 00"
Sunlit
Object was in daylight at epoch
Visualization orbit readout
Latitude
Unknown
Longitude
Unknown
Altitude
Unknown
Speed
Unknown
Apparent Right ascension
Unknown
Apparent Declination
Unknown
Sunlit
N/A
Visualization observer readout
Local Sidereal Time
01:37:08
Azimuth
Unknown
Elevation
Unknown
Doppler factor
Unknown
Orbital elements
Apogee altitude
463.832 km
Perigee altitude
462.121 km
Semi-major axis
6,841.114 km
Eccentricity
0.00013
Inclination
53.1584°
RAAN
254.1143°
Arg. of periapsis
85.7533°
True anomaly
274.34692°
Mean anomaly
274.3612°
Eccentric anomaly
274.35406°
Mean motion
3.83577 °/min
Orbital period
93.85 mins
BSTAR
0.00011245
Loading maneuver chart data...
Computing Atmospheric mass density...
Loading historical data...
Loading historical data...
Loading historical data...
Loading historical data...
Loading historical data...
Loading historical data...
Loading historical data...

Documentation

Showing up to 5 results
|